Location: Millers Ferry
(32.0990°N, 87.3680°W)
Time: 17:21:59
(UTC-05:00)

CSL-04 Rocket - Visible Passes

Search period start: 24 July 2016 00:00
Search period end: 03 August 2016 00:00
Orbit: 807 x 860 km, 99.0° (Epoch: 24 July)

Date Brightness Start Highest point End Pass type
(mag) Time Alt. Az. Time Alt. Az. Time Alt. Az.
24 Jul 6.2 05:06:34 10° NE 05:10:40 21° E 05:14:44 10° SE visible
25 Jul 6.5 04:50:54 10° ENE 04:53:39 14° E 04:56:24 10° ESE visible
29 Jul 5.7 05:21:56 10° NE 05:26:44 29° E 05:31:28 10° SSE visible
30 Jul 6.2 05:05:46 10° NE 05:09:46 20° E 05:13:43 10° SE visible
31 Jul 6.5 04:50:11 10° ENE 04:52:44 13° E 04:55:16 10° ESE visible
